Weather History for Whiting Fld NAS, FL

Change the Weather History Date:

Wednesday, May 14, 2014

  Actual Average Record
Temperature  
Mean Temperature 71 °F -  
Max Temperature 78 °F 83 °F 93 °F (1998)
Min Temperature 64 °F 61 °F 50 °F (2013)
Cooling Degree Days 6    
Growing Degree Days 21 (Base 50)    
Moisture  
Dew Point 67 °F    
Average Humidity 91    
Maximum Humidity 96    
Minimum Humidity 81    
Precipitation  
Precipitation 1.09 in - - ()
Sea Level Pressure  
Sea Level Pressure 29.98 in    
Wind  
Wind Speed 5 mph (ENE)    
Max Wind Speed 18 mph    
Max Gust Speed 26 mph    
Visibility 4 miles    
Events Fog , Rain , Thunderstorm    
Averages and records for this station are not official NWS values.
T = Trace of Precipitation, MM = Missing Value Source: NWS Daily Summary

Daily Weather History Graph

Daily Weather History Graph

Search for Another Location

Airport:

Trip Planner

Search our weather history database for the weather conditions in past years. The results will help you decide how hot, cold, wet, or windy it might be!

Date:

Astronomy

May. 14, 2014 Rise Set
Actual Time 5:53 AM CDT 7:35 PM CDT
Civil Twilight 5:27 AM CDT 8:01 PM CDT
Nautical Twilight 4:55 AM CDT 8:33 PM CDT
Astronomical Twilight 4:22 AM CDT 9:06 PM CDT
Moon 7:42 PM CDT (5/14) 5:48 AM CDT (5/14)
Length of Visible Light 14h 34m
Length of Day
13h 41m
Full, 100% of the Moon is Illuminated
May 14
Full
May 14
Full
May 21
Last Quarter
May 28
New
Jun 5
First Quarter

Hourly Weather History & Observations

Time (CDT) Temp. Dew Point Humidity Pressure Visibility Wind Dir Wind Speed Gust Speed Precip Events Conditions
12:17 AM 66.9 °F 64.9 °F 93% 30.06 in 1.5 mi Calm Calm - N/A   Clear
12:29 AM 66.9 °F 64.9 °F 93% 30.06 in 2.5 mi NW 3.5 mph - N/A   Clear
12:42 AM 68.0 °F 66.0 °F 93% 30.06 in 3.0 mi NNW 3.5 mph - N/A   Clear
12:56 AM 69.1 °F 66.9 °F 93% 30.01 in 4.0 mi NNW 3.5 mph - N/A   Clear
1:28 AM 68.0 °F 66.0 °F 93% 30.04 in 2.0 mi North 3.5 mph - N/A   Clear
1:56 AM 68.0 °F 66.0 °F 93% 29.98 in 1.0 mi NNE 3.5 mph - N/A   Mist
2:00 AM 68.0 °F 66.0 °F 93% 30.02 in 1.0 mi NNE 3.5 mph - N/A   Mist
2:07 AM 68.0 °F 66.0 °F 93% 30.02 in 0.2 mi NNE 3.5 mph - N/A Fog Fog
2:56 AM 69.1 °F 66.9 °F 93% 29.97 in 0.2 mi NNE 3.5 mph - N/A Fog Fog
3:42 AM 68.0 °F 66.9 °F 96% 30.01 in 0.5 mi ENE 3.5 mph - N/A Fog Fog
3:56 AM 68.0 °F 66.9 °F 96% 29.98 in 0.8 mi East 3.5 mph - N/A   Mist
4:04 AM 69.1 °F 66.9 °F 93% 30.02 in 2.0 mi East 5.8 mph - N/A   Overcast
4:15 AM 69.1 °F 66.9 °F 93% 30.02 in 2.5 mi ENE 5.8 mph - N/A Thunderstorm Overcast
4:29 AM 69.1 °F 66.9 °F 93% 30.02 in 3.0 mi ENE 5.8 mph - N/A   Overcast
4:56 AM 69.1 °F 66.9 °F 93% 29.98 in 3.0 mi Calm Calm - 0.00 in Rain , Thunderstorm Light Thunderstorms and Rain
5:00 AM 69.1 °F 66.9 °F 93% 30.03 in 2.5 mi WSW 6.9 mph - 0.01 in Rain , Thunderstorm Thunderstorms and Rain
5:07 AM 69.1 °F 66.9 °F 93% 30.03 in 3.0 mi Variable 4.6 mph - 0.01 in Rain , Thunderstorm Light Thunderstorms and Rain
5:29 AM 69.1 °F 66.0 °F 90% 30.02 in 2.5 mi NW 4.6 mph - 0.07 in Rain , Thunderstorm Thunderstorms and Rain
5:41 AM 68.0 °F 66.0 °F 93% 30.03 in 3.0 mi Calm Calm - 0.09 in Rain , Thunderstorm Thunderstorms and Rain
5:56 AM 68.0 °F 66.0 °F 93% 29.98 in 4.0 mi Calm Calm - 0.10 in Rain , Thunderstorm Light Thunderstorms and Rain
6:56 AM 69.1 °F 66.0 °F 90% 29.98 in 5.0 mi NE 6.9 mph - 0.03 in Thunderstorm Overcast
7:02 AM 69.1 °F 66.0 °F 90% 30.02 in 3.0 mi ENE 4.6 mph - 0.00 in Rain , Thunderstorm Light Thunderstorms and Rain
7:12 AM 69.1 °F 66.9 °F 93% 30.02 in 1.0 mi ENE 4.6 mph - N/A Rain , Thunderstorm Thunderstorms and Rain
7:39 AM 70.0 °F 66.9 °F 90% 30.02 in 3.0 mi ENE 5.8 mph - N/A Rain , Thunderstorm Light Thunderstorms and Rain
7:56 AM 70.0 °F 66.9 °F 90% 29.99 in 3.0 mi East 6.9 mph - N/A Rain , Thunderstorm Light Thunderstorms and Rain
8:04 AM 70.0 °F 66.9 °F 90% 30.03 in 1.8 mi ESE 4.6 mph - 0.06 in Rain , Thunderstorm Thunderstorms and Rain
8:22 AM 70.0 °F 68.0 °F 93% 30.02 in 3.0 mi ENE 4.6 mph - 0.10 in Rain , Thunderstorm Light Thunderstorms and Rain
8:35 AM 70.0 °F 68.0 °F 93% 30.02 in 5.0 mi ENE 4.6 mph - 0.10 in Thunderstorm Overcast
8:50 AM 71.1 °F 68.0 °F 90% 29.97 in 5.0 mi ENE 4.6 mph - 0.10 in Thunderstorm Overcast
8:55 AM 71.1 °F 68.0 °F 90% 30.01 in 2.5 mi ENE 4.6 mph - 0.02 in Rain Light Rain
8:58 AM 70.0 °F 68.0 °F 93% 30.01 in 1.5 mi ENE 3.5 mph - 0.04 in Rain , Thunderstorm Heavy Thunderstorms and Rain
9:07 AM 71.1 °F 68.0 °F 90% 30.01 in 3.0 mi East 4.6 mph - 0.05 in Rain , Thunderstorm Light Thunderstorms and Rain
9:15 AM 71.1 °F 68.0 °F 90% 30.01 in 3.0 mi East 6.9 mph - 0.09 in Rain Light Rain
9:40 AM 71.1 °F 69.1 °F 93% 29.99 in 4.0 mi ENE 8.1 mph - 0.09 in Rain , Thunderstorm Light Thunderstorms and Rain
9:47 AM 71.1 °F 69.1 °F 93% 29.98 in 1.8 mi ENE 8.1 mph - 0.14 in Rain , Thunderstorm Heavy Thunderstorms and Rain
9:56 AM 71.1 °F 69.1 °F 93% 29.95 in 1.5 mi ENE 5.8 mph - 0.17 in Rain , Thunderstorm Thunderstorms and Rain
10:12 AM 71.1 °F 68.0 °F 90% 29.99 in 3.0 mi Variable 3.5 mph - 0.05 in Rain , Thunderstorm Light Thunderstorms and Rain
10:39 AM 71.1 °F 68.0 °F 90% 29.99 in 1.8 mi Calm Calm - 0.09 in Rain , Thunderstorm Heavy Thunderstorms and Rain
10:48 AM 71.1 °F 68.0 °F 90% 29.99 in 3.0 mi Calm Calm - 0.09 in Rain , Thunderstorm Light Thunderstorms and Rain
10:56 AM 71.1 °F 68.0 °F 90% 29.95 in 7.0 mi West 6.9 mph - 0.09 in Rain , Thunderstorm Light Thunderstorms and Rain
11:13 AM 73.0 °F 70.0 °F 90% 29.99 in 9.0 mi Variable 5.8 mph - 0.00 in Thunderstorm Thunderstorm
11:31 AM 75.0 °F 72.0 °F 90% 29.98 in 7.0 mi SSE 15.0 mph - 0.00 in   Overcast
11:56 AM 77.0 °F 72.0 °F 84% 29.94 in 8.0 mi SSE 15.0 mph - 0.00 in   Overcast
12:56 PM 78.1 °F 72.0 °F 81% 29.91 in 9.0 mi SSE 16.1 mph - N/A   Overcast
1:05 PM 77.0 °F 72.0 °F 84% 29.95 in 7.0 mi SSE 17.3 mph - 0.00 in Rain Light Rain
1:56 PM 77.0 °F 72.0 °F 84% 29.88 in 9.0 mi SSE 15.0 mph - 0.00 in   Overcast
2:32 PM 75.0 °F 71.1 °F 87% 29.91 in 3.0 mi SSE 17.3 mph - 0.00 in Rain Rain
2:56 PM 75.0 °F 71.1 °F 87% 29.87 in 7.0 mi SSE 18.4 mph 26.5 mph 0.00 in   Overcast
3:56 PM 75.9 °F 71.1 °F 85% 29.88 in 8.0 mi South 11.5 mph - 0.00 in Rain , Thunderstorm Light Thunderstorms and Rain
4:18 PM 73.0 °F 68.0 °F 84% 29.96 in 0.5 mi WSW 11.5 mph 24.2 mph 0.11 in Rain , Thunderstorm Thunderstorms and Rain
4:35 PM 66.0 °F 64.0 °F 93% 29.94 in 1.0 mi Variable 4.6 mph 16.1 mph 0.22 in Rain , Thunderstorm Thunderstorms and Rain
4:43 PM 66.0 °F 64.0 °F 93% 29.94 in 2.0 mi West 5.8 mph - 0.27 in Rain , Thunderstorm Heavy Thunderstorms and Rain
4:56 PM 66.0 °F 63.0 °F 90% 29.92 in 2.0 mi SW 11.5 mph - 0.32 in Rain , Thunderstorm Thunderstorms and Rain
5:03 PM 66.0 °F 63.0 °F 90% 29.96 in 0.5 mi WSW 8.1 mph - 0.09 in Fog , Rain , Thunderstorm Heavy Thunderstorms and Rain
5:20 PM 66.0 °F 63.0 °F 90% 29.96 in 2.5 mi West 11.5 mph 23.0 mph 0.17 in Rain , Thunderstorm Thunderstorms and Rain
5:56 PM 66.0 °F 63.0 °F 90% 29.92 in 3.0 mi WSW 4.6 mph - 0.25 in Rain Rain
6:31 PM 66.0 °F 63.0 °F 90% 29.94 in 6.0 mi Calm Calm - 0.03 in Rain Light Rain
6:56 PM 66.0 °F 63.0 °F 90% 29.88 in 10.0 mi North 5.8 mph - 0.03 in Rain Light Rain
7:13 PM 66.0 °F 63.0 °F 90% 29.92 in 10.0 mi North 5.8 mph - 0.00 in   Mostly Cloudy
7:56 PM 66.0 °F 63.0 °F 90% 29.91 in 10.0 mi ESE 4.6 mph - 0.00 in   Mostly Cloudy
8:56 PM 66.0 °F 63.0 °F 90% 29.93 in 10.0 mi Calm Calm - N/A   Mostly Cloudy
9:56 PM 64.9 °F 63.0 °F 93% 29.94 in 10.0 mi Calm Calm - N/A   Mostly Cloudy
10:45 PM 64.9 °F 63.0 °F 93% 29.98 in 10.0 mi Calm Calm - N/A   Mostly Cloudy
10:52 PM 64.4 °F 62.6 °F 94% 29.98 in 10.0 mi Calm Calm - N/A   Overcast
10:56 PM 64.9 °F 63.0 °F 93% 29.94 in 10.0 mi Calm Calm - N/A   Overcast
11:36 PM 66.0 °F 63.0 °F 90% 29.98 in 9.0 mi WNW 12.7 mph - N/A   Overcast
11:46 PM 64.9 °F 62.1 °F 90% 29.98 in 10.0 mi NW 11.5 mph - N/A   Overcast
11:56 PM 64.9 °F 62.1 °F 90% 29.94 in 10.0 mi NW 12.7 mph - N/A   Overcast